"Pseudo-MPEC" for C184DV1

Created 2020 May 25 3:07:04 UT using Find_Orb

Click here for an explanation of pseudo-MPECs

 
 Astrometry: 
     C184DV1  C2020 05 22.44891 00 12 09.24 +35 46 55.7    ~5MBq 18.0 GVNEOCP703
     C184DV1  C2020 05 22.45432 00 12 09.05 +35 47 06.5    ~5MBq 17.6 GVNEOCP703
     C184DV1  C2020 05 22.45974 00 12 08.85 +35 47 18.6    ~5MBq 17.8 GVNEOCP703
     C184DV1  C2020 05 22.46515 00 12 08.43 +35 47 30.0    ~5MBq 17.7 GVNEOCP703
     C184DV1 hC2020 05 23Z?Xa''kjR,!1EoWNZUjkXYvvv%\#dpBBW#IIme!Astrometryy@fL01
     C184DV1 hC2020 05 23E6wMpRa1w7aMdd?(Z;K8N;2n14\0$Z^tf5QSL9[CWEb_YXdqv92bL01
     C184DV1 hC2020 05 23-(tu?^yBN?xdq,jdgguf*ZEbEq^8]Gyfut_Yt^#WTg(`1lMSgm]9L01
     C184DV1 hC2020 05 23E!0)9m*83%fr9;0oBI_J0J=7#^+`:x+;.iTUMFiSg;F(;FHd+rNUL01
     C184DV1 hC2020 05 23i@3NKshIY^18fO9/\Z%(b+w.SmKj;0iC5c18vo#Rbj[US5XQcR9pL01
     C184DV1 BC2020 05 23.08706600 11 36.68 +36 08 34.8    ~5N37 18.3 GVNEOCPJ95
     C184DV1 BC2020 05 23.09577800 11 36.17 +36 08 53.9    ~5N37 18.7 GVNEOCPJ95
     C184DV1 2C2020 05 23n,B8b7#RZloE+Eo.w1R2@,P/+`\7yR+_NCGeSymyxGn`xYm1yS;.G40
     C184DV1 2C2020 05 23qnS7G,B,4@-taSgcR?eFZcYMNXj@wDh+\5kXA%ROYMj3n-e4L2njG40
     C184DV1 2C2020 05 23kA$!bDx-g]CN!x..Mg5q)Xf=+R1uw,9U-V`cAw`CL;A4IH!^shRBG40
     C184DV1 2C2020 05 23_]NKXKWK'?redacted;'[YDV*y\FApICLb=(*oJiRx:d#L5*Eq?$G40
     C184DV1 2C2020 05 23;A4AqAI_m1uoKy_#wyA!%W_J(%(C=Cuhwk/GQW2-R(YRA6)tX^iDG40
     C184DV1 %C2020 05 23$q#-:#$8Sl5DU6O2#]?_pK,Tdm-7%$nfsKje$6#kkRXniwS_H3FVH06
     C184DV1 %C2020 05 233dI4r:mv.YIZ#489i;*ZH(795Q;Hwr[;uI36pdx)3X,Hqykf^%4-H06
     C184DV1 |C2020 05 23:v1/xb[Y#W]7G-clickUE7hXwj)w5o[:^5!d)wO9u7t/:+F+RS`RH06
     C184DV1  C2020 05 23.44554 00 11 17.69 +36 20 54.5    ~5NBq 17.8 GVNEOCP703
     C184DV1 |C2020 05 23j)0BM9?c.TWliY0M0_f,P:oEF;PRHk*mN:5!-Tpbvb+/MX?fx%=9H06
     C184DV1 |C2020 05 23tb9ilE87P+eD@A,N9jiduxk.2,COyrk8a78S)h8nf2ir:]t*L9Z%H06
     C184DV1  C2020 05 23.45225 00 11 17.30 +36 21 09.1    ~5NBq 17.8 GVNEOCP703
     C184DV1  C2020 05 23.45895 00 11 16.92 +36 21 22.6    ~5NBq 17.9 GVNEOCP703
     C184DV1  C2020 05 23.46565 00 11 16.54 +36 21 36.5    ~5NBq 17.5 GVNEOCP703
     C184DV1  C2020 05 23^hCpN@yN8D@T\Xae3AfW9'nhet[Ey?gvj=iD/4=Jw%iQYry3f'.lU71
     C184DV1  C2020 05 23ikU.YRROIBs207PZh/ItB%lA92t@Hv/m,rL^JU-F(?V@I6b29\T?U71
     C184DV1  C2020 05 23)PX;RR\T)EGiqNMv)4B2-y,Wini)+xH4NZ)Zf?4Ie586c?2mSU%aU71
     C184DV1  C2020 05 23.erQ3;Zm\RAp\U7!C:@YSWBrCiRHA`3m8G.Lecrw3.-JcPe*cr;,U71
     C184DV1  C2020 05 23D^OJ7xEQ18CXGJx#gpTXa%Alj%U@;`YkeJi0UTIy3J#e'j5[jmwoU71
     C184DV1 KC2020 05 234i9nDUhhere:G+'KNk'(nZo]ZEMo[qXg+GyE6g9RiD3:L$uUMU$kP87
     C184DV1 KC2020 05 23l9k?bk%^X0_8/^NvxZ?vGZI/XS?6x1Oi+8Iv=-.MlF6+Of)c,%1@P87
     C184DV1  C2020 05 23(7forO`DnwBZfe5a[CIbioxtx?WbK]MEetbCW*W]JB`]7],TURU.N88
     C184DV1  C2020 05 23K2pPICui;JI#maJ=2F?r]1/ie5xqj,CWVsSoon?qfxYjEj5qMFp1N88
     C184DV1  C2020 05 23;n]`U=1SwemYAe+a+ZcuI4Hp:[UgoBx2SR0rTW,Pvkkn/wNLrR`uN88
     C184DV1  C2020 05 23HTm]/ZVYVTk0`U\;fhEc36WB3`H`lb5:(Q=-_s*):@qbCv-Ur@;AN88
     C184DV1  C2020 05 23Z-]o!TR,ZoexplanationnshdWLfqF8x..u*;P#6Exp,5@aiLn#AN88
     C184DV1 KC2020 05 24Pc.ilY5^WDmSN.]+x)]I5sCwboEfja-g$w3^2ro0?_'`Di(O$!rUL02
     C184DV1 KC2020 05 24cg)1aN$;b(4X8-Zw4@v:c$iBY;wv(xm9Z2B^M^!UL3nYGEmBu.+SL06
     C184DV1 KC2020 05 24QM2mK/O#iC#/8a6vFHOn[w9O?i7JBBRUi#?ZaPd%i%;?BahqUIHIL02
     C184DV1 KC2020 05 24Rg8ClZfDiU!aN[De@ITFetBL9\?+r)w;uW[s!7t?/?du93)_R#'YL06
     C184DV1 KC2020 05 24su;97etwJ.CcSrMy68J,Rc35]bPvS*;N'ux67uyjmY=uXSwKW)#4L06
     C184DV1 KC2020 05 24.11939 00 10 40.94 +36 44 14.5    ~5O3M 17.7 GUNEOCPI93
     C184DV1 KC2020 05 24.12268 00 10 40.86 +36 44 21.4    ~5O3M 18.4 GUNEOCPI93
     C184DV1 KC2020 05 24.12597 00 10 40.59 +36 44 28.4    ~5O3M 18.5 GUNEOCPI93
     C184DV1 KC2020 05 25.05637200 09 47.38 +37 17 10.3    ~5P2q 19.3 GVNEOCPJ95
     C184DV1 KC2020 05 25G6I*STZ,^uZfp2V.b/RUiIP!W(4e)H2tLpMP3dKn*vZ:^vJjRm:\Z99
     C184DV1 KC2020 05 25.06681700 09 46.74 +37 17 32.7    ~5P2q 19.0 GVNEOCPJ95
     C184DV1 KC2020 05 25HqO_*2bp,4g3:=GXCo=s)WW[G2(;HQfgZLKl4AS.@pAN#jEvNW-.Z99
     C184DV1 KC2020 05 258.@u$Bj/`p4R^0_`Vx!_Ul*Q@a8(TGHOKDUo.;fBGJRa1KAA#BYhZ99
     C184DV1 KC2020 05 25.07725900 09 46.11 +37 17 54.9    ~5P2q 18.8 GVNEOCPJ95

Station data:
(703) Catalina Sky Survey  (N32.417006 W110.732640)  US/Arizona.  Observers
   T. A. Pruyne, B. M. Africano, E. J. Christensen, G. A. Farneth, D. C.
   Fuls, A. R. Gibbs, A. D. Grauer, H. Gröller, J. A. Johnson, R. A.
   Kowalski, S. M. Larson, G. J. Leonard, D. Rankin, R. L. Seaman, F. C.
   Shelly. 0.68 m Schmidt + 10K CCD.
(G40) Slooh.com Canary Islands Observatory  (N28.299720 W16.508260)  Canary
   Islands (Spain).  Observers G. Gašparović, Y. Chen. 0.43-m f/6.8 Corrected
   Dall-Kirkham + CCD.
(H06) RAS Observatory, Mayhill  (N32.903325 W105.528700)  US/New
   Mexico.  Observers E. Guido, G. Sostero, V. Gonano, L. Donato.
(I93) St Pardon de Conques  (N44.558710 W0.203000)  France.  Observer F.
   Losse. 0.40-m f/3.7 reflector + CCD.
(J95) Great Shefford  (N51.474969 W1.447003)  UK.  Observer P. Birtwhistle.
   0.40-m f/6.0 Schmidt-Cassegrain + CCD.
(L01) Višnjan Observatory, Tičan  (N45.290900 E13.749300)  Croatia.
   Observers K. Korlević, E. Pettarin. Measurer E. Pettarin. 1.0-m f/2.9
   reflector + CCD.
(L02) NOAK Observatory, Stavraki  (N39.652455 E20.816580)  Greece.
(L06) Sormano 2 Observatory, Bellagio Via Lattea  (N45.970103 E9.254030)
   Italy.
(N88) Xingming Observatory #3, Nanshan  (N43.471787 E87.173220)  China.
(P87) Hirao Observatory, Yamaguchi  (N33.954136 E132.094190)  Japan.
(U71) AHS Observatory, Castaic  (N34.485863 W118.636700)  US/California.
(Z99) Clixby Observatory, Cleethorpes  (N53.546062 W0.021260)  UK.

Orbital elements:  C184DV1
   Perihelion 2020 May 23.725920 TT = 17:25:19 (JD 2458993.225920)
Epoch 2020 May 25.0 TT = JDT 2458994.5   Earth MOID: 0.7697   Ju: 0.9965
M   0.09492957                      (J2000 ecliptic)
n   0.07450835     Peri.   60.93092
a   5.59327380     Node    29.58314
e   0.7289792      Incl.  130.35839
P  13.23           H   14.8     G   0.15   q 1.51589334  Q 9.67065425
From 51 observations 2020 May 22-25; mean residual 1".70
Residuals in arcseconds: 
200522 703  1.4-  .09-    200523 H06  .19-  .01-    200523 N88  .23+  .40+    
200522 703  .39-  .33-    200523 H06  .34-  .62+    200523 N88  .40-  1.5+    
200522 703  .54+  .72+    200523 703  .96-  .04+    200523 N88  .31-  1.3+    
200522 703  1.2-  1.1+    200523 H06  .30-  .53+    200524 L02  1.0-  1.5+    
200523 L01  .21+  .59+    200523 H06  .50-  .54+    200524 L06  1.1-  .40+    
200523 L01  .01-  .54+    200523 703  1.3-  .69+    200524 L02  .32-  .30-    
200523 L01  .50+  .50+    200523 703  1.5-  .26+    200524 L06  1.1-  .24+    
200523 L01  .82+  .85+    200523 703  1.7-  .23+    200524 L06  .40-  1.1+    
200523 L01  .00   2.1+    200523 U71  .35-  1.1-    200524 I93  .92-  .51+    
200523 J95  .71+  .25-    200523 U71  .65+  1.3+    200524 I93  .34+  .48+    
200523 J95  .04+  .89+    200523 U71  .61+  .03+    200524 I93  .69-  .56+    
200523 G40  3.6-  .22-    200523 U71  .29-  .88-    200525 J95  .46+  .17-    
200523 G40  3.9+  .07-    200523 U71  .97-  .12+    200525 Z99  .11+  .70+    
200523 G40  7.4+ 11.0-    200523 P87  .54+  2.1-    200525 J95  .13+  .13-    
200523 G40  1.4-  .20+    200523 P87  .33-  1.4-    200525 Z99  .14-  .45+    
200523 G40  .15-  5.7-    200523 N88  .49+  1.5+    200525 Z99  .19-  .21+    
200523 H06  .53-  1.0+    200523 N88  .33-  .28+    200525 J95  .05-  .29-    

Ephemerides (geocentric):
Date (UTC) HH   RA              Dec         delta   r     elong  mag
---- -- -- --  -------------   -----------  ------ ------ -----  ---
2020 05 25 03  00 09 43.049   +37 19 39.94  1.8767 1.5160  53.7 18.4
2020 05 25 04  00 09 40.581   +37 21 08.82  1.8760 1.5160  53.8 18.4
2020 05 25 05  00 09 38.106   +37 22 37.78  1.8752 1.5160  53.8 18.4
2020 05 25 06  00 09 35.625   +37 24 06.80  1.8744 1.5160  53.8 18.4
2020 05 25 07  00 09 33.137   +37 25 35.90  1.8736 1.5160  53.9 18.4
2020 05 25 08  00 09 30.643   +37 27 05.07  1.8728 1.5160  53.9 18.4
2020 05 25 09  00 09 28.143   +37 28 34.31  1.8720 1.5160  53.9 18.4
2020 05 25 10  00 09 25.637   +37 30 03.62  1.8713 1.5160  54.0 18.4
2020 05 25 11  00 09 23.123   +37 31 33.00  1.8705 1.5160  54.0 18.4
2020 05 25 12  00 09 20.604   +37 33 02.45  1.8697 1.5160  54.1 18.4
2020 05 25 13  00 09 18.078   +37 34 31.98  1.8689 1.5160  54.1 18.4
2020 05 25 14  00 09 15.545   +37 36 01.57  1.8681 1.5161  54.1 18.4
2020 05 25 15  00 09 13.006   +37 37 31.24  1.8673 1.5161  54.2 18.4
2020 05 25 16  00 09 10.461   +37 39 00.98  1.8665 1.5161  54.2 18.4
2020 05 25 17  00 09 07.909   +37 40 30.80  1.8658 1.5161  54.2 18.4
2020 05 25 18  00 09 05.350   +37 42 00.68  1.8650 1.5161  54.3 18.4
2020 05 25 19  00 09 02.785   +37 43 30.64  1.8642 1.5161  54.3 18.4
2020 05 25 20  00 09 00.213   +37 45 00.66  1.8634 1.5161  54.4 18.4
2020 05 25 21  00 08 57.635   +37 46 30.77  1.8626 1.5161  54.4 18.4
2020 05 25 22  00 08 55.050   +37 48 00.94  1.8618 1.5161  54.4 18.4
2020 05 25 23  00 08 52.459   +37 49 31.18  1.8610 1.5161  54.5 18.4
2020 05 26 00  00 08 49.860   +37 51 01.50  1.8603 1.5161  54.5 18.4
2020 05 26 01  00 08 47.256   +37 52 31.89  1.8595 1.5161  54.5 18.4
2020 05 26 02  00 08 44.644   +37 54 02.36  1.8587 1.5162  54.6 18.4
2020 05 26 03  00 08 42.026   +37 55 32.89  1.8579 1.5162  54.6 18.4
2020 05 26 04  00 08 39.401   +37 57 03.50  1.8571 1.5162  54.7 18.4
2020 05 26 05  00 08 36.769   +37 58 34.18  1.8563 1.5162  54.7 18.4
2020 05 26 06  00 08 34.130   +38 00 04.93  1.8555 1.5162  54.7 18.4
2020 05 26 07  00 08 31.485   +38 01 35.76  1.8547 1.5162  54.8 18.4
2020 05 26 08  00 08 28.833   +38 03 06.66  1.8540 1.5162  54.8 18.4
2020 05 26 09  00 08 26.174   +38 04 37.63  1.8532 1.5162  54.9 18.4
2020 05 26 10  00 08 23.508   +38 06 08.68  1.8524 1.5162  54.9 18.4
2020 05 26 11  00 08 20.836   +38 07 39.80  1.8516 1.5162  54.9 18.4
2020 05 26 12  00 08 18.156   +38 09 10.99  1.8508 1.5163  55.0 18.4
2020 05 26 13  00 08 15.470   +38 10 42.25  1.8500 1.5163  55.0 18.4
2020 05 26 14  00 08 12.777   +38 12 13.59  1.8492 1.5163  55.0 18.4
2020 05 26 15  00 08 10.076   +38 13 45.00  1.8484 1.5163  55.1 18.4
2020 05 26 16  00 08 07.369   +38 15 16.49  1.8477 1.5163  55.1 18.4
2020 05 26 17  00 08 04.655   +38 16 48.05  1.8469 1.5163  55.2 18.4
2020 05 26 18  00 08 01.934   +38 18 19.68  1.8461 1.5163  55.2 18.4
2020 05 26 19  00 07 59.206   +38 19 51.39  1.8453 1.5163  55.2 18.4
2020 05 26 20  00 07 56.471   +38 21 23.17  1.8445 1.5163  55.3 18.4
2020 05 26 21  00 07 53.729   +38 22 55.02  1.8437 1.5164  55.3 18.4
2020 05 26 22  00 07 50.980   +38 24 26.95  1.8429 1.5164  55.3 18.4
2020 05 26 23  00 07 48.224   +38 25 58.95  1.8421 1.5164  55.4 18.4
2020 05 27 00  00 07 45.460   +38 27 31.03  1.8414 1.5164  55.4 18.4
2020 05 27 01  00 07 42.690   +38 29 03.18  1.8406 1.5164  55.5 18.4
2020 05 27 02  00 07 39.912   +38 30 35.40  1.8398 1.5164  55.5 18.4